Previsão horária em Jujuy

Hoje, 24 Junho, Quinta-feira

Tempo Temperatura Precipitação Vento Pressão Humidade
00:00 +12°C° 0 mm 4 m/s 645 mmHg 30%
01:00 +12°C° 0 mm 4 m/s 645 mmHg 32%
02:00 +12°C° 0 mm 4 m/s 645 mmHg 35%
03:00 +11°C° 0 mm 3 m/s 645 mmHg 36%
04:00 +11°C° 0 mm 3 m/s 646 mmHg 38%
05:00 +10°C° 0 mm 2 m/s 646 mmHg 39%
06:00 +12°C° 0 mm 2 m/s 648 mmHg 39%
07:00 +12°C° 0 mm 2 m/s 649 mmHg 39%
08:00 +13°C° 0 mm 1 m/s 650 mmHg 38%
09:00 +15°C° 0 mm 2 m/s 650 mmHg 35%
10:00 +17°C° 0 mm 2 m/s 651 mmHg 32%
11:00 +19°C° 0 mm 2 m/s 651 mmHg 29%
12:00 +20°C° 0 mm 3 m/s 651 mmHg 30%
13:00 +20°C° 0 mm 3 m/s 650 mmHg 31%
14:00 +21°C° 0 mm 3 m/s 649 mmHg 32%
15:00 +19°C° 0 mm 2 m/s 649 mmHg 37%
16:00 +18°C° 0 mm 2 m/s 649 mmHg 43%
17:00 +17°C° 0 mm 2 m/s 649 mmHg 48%
18:00 +15°C° 0 mm 2 m/s 648 mmHg 52%
19:00 +14°C° 0 mm 1 m/s 648 mmHg 57%
20:00 +12°C° 0 mm 1 m/s 648 mmHg 61%
21:00 +11°C° 0 mm 1 m/s 648 mmHg 60%
22:00 +10°C° 0 mm 2 m/s 648 mmHg 59%
23:00 +10°C° 0 mm 2 m/s 648 mmHg 58%

Amanhã, 25 Junho, Sexta-feira

Tempo Temperatura Precipitação Vento Pressão Humidade
00:00 +10°C° 0 mm 2 m/s 647 mmHg 57%
01:00 +10°C° 0 mm 2 m/s 647 mmHg 56%
02:00 +9°C° 0 mm 2 m/s 647 mmHg 56%
03:00 +9°C° 0 mm 2 m/s 646 mmHg 55%
04:00 +9°C° 0 mm 2 m/s 646 mmHg 55%
05:00 +9°C° 0 mm 2 m/s 646 mmHg 54%
06:00 +10°C° 0 mm 2 m/s 646 mmHg 52%
07:00 +10°C° 0 mm 2 m/s 646 mmHg 50%
08:00 +12°C° 0 mm 2 m/s 647 mmHg 48%
09:00 +14°C° 0 mm 2 m/s 647 mmHg 44%
10:00 +18°C° 0 mm 1 m/s 648 mmHg 39%
11:00 +20°C° 0 mm 1 m/s 648 mmHg 35%
12:00 +20°C° 0 mm 2 m/s 647 mmHg 33%
13:00 +21°C° 0 mm 2 m/s 646 mmHg 32%
14:00 +21°C° 0 mm 2 m/s 646 mmHg 30%
15:00 +20°C° 0 mm 2 m/s 645 mmHg 35%
16:00 +20°C° 0 mm 1 m/s 645 mmHg 39%
17:00 +19°C° 0 mm 1 m/s 645 mmHg 44%
18:00 +16°C° 0 mm 1 m/s 645 mmHg 47%
19:00 +14°C° 0 mm 2 m/s 645 mmHg 50%
20:00 +12°C° 0 mm 2 m/s 645 mmHg 53%
21:00 +12°C° 0 mm 2 m/s 645 mmHg 51%
22:00 +12°C° 0 mm 2 m/s 644 mmHg 50%
23:00 +12°C° 0 mm 2 m/s 644 mmHg 49%

Depois de amanhã, 26 Junho, Sábado

Tempo Temperatura Precipitação Vento Pressão Humidade
00:00 +12°C° 0 mm 2 m/s 644 mmHg 48%
01:00 +12°C° 0 mm 2 m/s 644 mmHg 47%
02:00 +12°C° 0 mm 2 m/s 643 mmHg 47%
03:00 +10°C° 0 mm 2 m/s 643 mmHg 45%
04:00 +10°C° 0 mm 3 m/s 643 mmHg 44%
05:00 +10°C° 0 mm 3 m/s 643 mmHg 42%
06:00 +11°C° 0 mm 3 m/s 644 mmHg 39%
07:00 +12°C° 0 mm 2 m/s 645 mmHg 36%
08:00 +13°C° 0 mm 2 m/s 646 mmHg 34%
09:00 +15°C° 0 mm 2 m/s 646 mmHg 33%
10:00 +17°C° 0 mm 2 m/s 647 mmHg 32%
11:00 +19°C° 0 mm 2 m/s 648 mmHg 31%
12:00 +20°C° 0 mm 2 m/s 648 mmHg 33%
13:00 +20°C° 0 mm 3 m/s 648 mmHg 36%
14:00 +20°C° 0 mm 3 m/s 648 mmHg 38%
15:00 +19°C° 0 mm 3 m/s 648 mmHg 46%
16:00 +17°C° 0 mm 3 m/s 648 mmHg 54%
17:00 +14°C° 0 mm 3 m/s 649 mmHg 62%
18:00 +12°C° 0 mm 3 m/s 649 mmHg 70%
19:00 +11°C° 0 mm 3 m/s 650 mmHg 77%
20:00 +9°C° 0 mm 3 m/s 651 mmHg 85%
21:00 +8°C° 0.1 mm 2 m/s 651 mmHg 86%
22:00 +8°C° 0.1 mm 2 m/s 652 mmHg 87%
23:00 +7°C° 0.1 mm 2 m/s 652 mmHg 89%

27 Junho, Domingo

Tempo Temperatura Precipitação Vento Pressão Humidade
00:00 +7°C° 0.2 mm 2 m/s 652 mmHg 89%
01:00 +6°C° 0.2 mm 2 m/s 653 mmHg 90%
02:00 +6°C° 0.2 mm 2 m/s 653 mmHg 90%
03:00 +5°C° 0.2 mm 2 m/s 653 mmHg 92%
04:00 +5°C° 0.2 mm 2 m/s 653 mmHg 93%
05:00 +4°C° 0.2 mm 2 m/s 653 mmHg 95%
06:00 +4°C° 0.2 mm 2 m/s 654 mmHg 95%
07:00 +4°C° 0.2 mm 2 m/s 655 mmHg 95%
08:00 +3°C° 0.2 mm 2 m/s 656 mmHg 95%
09:00 +4°C° 0.2 mm 2 m/s 656 mmHg 91%
10:00 +4°C° 0.2 mm 2 m/s 656 mmHg 86%
11:00 +4°C° 0.2 mm 2 m/s 657 mmHg 82%
12:00 +5°C° 0.1 mm 2 m/s 656 mmHg 75%
13:00 +4°C° 0.1 mm 3 m/s 656 mmHg 68%
14:00 +4°C° 0.1 mm 3 m/s 655 mmHg 62%
15:00 +5°C° 0.1 mm 2 m/s 656 mmHg 61%
16:00 +5°C° 0.1 mm 2 m/s 656 mmHg 60%
17:00 +5°C° 0.1 mm 1 m/s 656 mmHg 59%
18:00 +4°C° 0 mm 1 m/s 656 mmHg 65%
19:00 +3°C° 0 mm 1 m/s 657 mmHg 71%
20:00 +2°C° 0 mm 1 m/s 657 mmHg 77%
21:00 +2°C° 0 mm 1 m/s 657 mmHg 76%
22:00 +2°C° 0 mm 1 m/s 657 mmHg 75%
23:00 +1°C° 0 mm 1 m/s 658 mmHg 75%

28 Junho, Segunda-feira

Tempo Temperatura Precipitação Vento Pressão Humidade
00:00 +1°C° 0 mm 1 m/s 657 mmHg 74%
01:00 +1°C° 0 mm 1 m/s 657 mmHg 73%
02:00 +1°C° 0 mm 1 m/s 657 mmHg 72%
03:00 0°C° 0 mm 1 m/s 656 mmHg 72%
04:00 0°C° 0 mm 1 m/s 656 mmHg 71%
05:00 0°C° 0 mm 1 m/s 656 mmHg 70%
06:00 +1°C° 0 mm 1 m/s 656 mmHg 66%
07:00 +2°C° 0 mm 1 m/s 657 mmHg 63%
08:00 +2°C° 0 mm 1 m/s 657 mmHg 60%
09:00 +4°C° 0 mm 1 m/s 657 mmHg 55%
10:00 +7°C° 0 mm 1 m/s 657 mmHg 51%
11:00 +8°C° 0 mm 2 m/s 657 mmHg 46%
12:00 +8°C° 0 mm 2 m/s 657 mmHg 45%
13:00 +9°C° 0 mm 3 m/s 656 mmHg 43%
14:00 +10°C° 0 mm 3 m/s 655 mmHg 42%
15:00 +9°C° 0 mm 2 m/s 655 mmHg 45%
16:00 +8°C° 0 mm 2 m/s 655 mmHg 48%
17:00 +8°C° 0 mm 1 m/s 655 mmHg 50%
18:00 +6°C° 0 mm 1 m/s 655 mmHg 57%
19:00 +3°C° 0 mm 2 m/s 656 mmHg 64%
20:00 +2°C° 0 mm 2 m/s 656 mmHg 71%
21:00 +2°C° 0 mm 2 m/s 656 mmHg 70%
22:00 +2°C° 0 mm 1 m/s 656 mmHg 68%
23:00 +2°C° 0 mm 1 m/s 656 mmHg 67%

29 Junho, Terça-feira

Tempo Temperatura Precipitação Vento Pressão Humidade
00:00 +2°C° 0 mm 1 m/s 656 mmHg 65%
01:00 +2°C° 0 mm 1 m/s 655 mmHg 63%
02:00 +1°C° 0 mm 2 m/s 655 mmHg 62%
03:00 +1°C° 0 mm 2 m/s 655 mmHg 59%
04:00 +1°C° 0 mm 2 m/s 654 mmHg 57%
05:00 +1°C° 0 mm 2 m/s 654 mmHg 55%
06:00 +3°C° 0 mm 1 m/s 654 mmHg 51%
07:00 +4°C° 0 mm 1 m/s 655 mmHg 48%
08:00 +5°C° 0 mm 1 m/s 656 mmHg 44%
09:00 +8°C° 0 mm 1 m/s 656 mmHg 39%
10:00 +10°C° 0 mm 1 m/s 656 mmHg 35%
11:00 +13°C° 0 mm 1 m/s 657 mmHg 30%
12:00 +14°C° 0 mm 2 m/s 656 mmHg 29%
13:00 +15°C° 0 mm 2 m/s 656 mmHg 28%
14:00 +15°C° 0 mm 2 m/s 655 mmHg 27%
15:00 +14°C° 0 mm 2 m/s 655 mmHg 31%
16:00 +13°C° 0 mm 2 m/s 654 mmHg 35%
17:00 +12°C° 0 mm 1 m/s 654 mmHg 38%
18:00 +10°C° 0 mm 1 m/s 653 mmHg 40%
19:00 +8°C° 0 mm 2 m/s 653 mmHg 42%
20:00 +6°C° 0 mm 2 m/s 653 mmHg 44%
21:00 +6°C° 0 mm 2 m/s 653 mmHg 44%
22:00 +6°C° 0 mm 2 m/s 653 mmHg 43%
23:00 +5°C° 0 mm 2 m/s 653 mmHg 42%
Mostrar mais

Necessitamos do seu Consentimento

A Meteoprog e os seus Fornecedores de Serviços podem armazenar e aceder a dados pessoais como cookies, identificadores do dispositivo ou outras tecnologias semelhantes existentes no seu dispositivo e processar estes dados para personalizar conteúdos e anúncios, assim como funcionalidades nas redes sociais e análise de tráfego.

  • Armazenar e/ou aceder a informações no seu dispositivo

    Os cookies, identificadores do dispositivo ou outras informações podem ser armazenados ou acedidos no seu dispositivo, para os fins acima indicados.

  • Anúncios e conteúdos personalizados, medição de anúncios e conteúdos, dados sobre o público-alvo e desenvolvimento de produtos

    Os anúncios e os conteúdos podem ser personalizados com base num perfil. Podem ser adicionados dados adicionais para uma maior personalização dos anúncios e dos conteúdos. A eficácia dos anúncios e dos conteúdos pode ser medida. Podem ser obtidas informações sobre o público que visualizou os anúncios e os conteúdos. Estes dados podem ser usados para desenvolver ou melhorar sistemas, softwares ou a experiência do utilizador.

Ao clicar em "Eu concordo”, permitirá o uso de cookies, identificadores do dispositivo e web beacons mencionados ou outras tecnologias semelhantes. As configurações do navegador do seu dispositivo podem ser alteradas.

Para certos fins, podem ser invocados interesses legítimos ao invés de consentimento. Pode ler mais informação sobre este assunto na nossa Política de Privacidade e Cookies.